contact:dominique.lefevre@mio.osupytheas.fr, maurice.libes@osupytheas.fr, didier.mallarino@osupytheas.fr
Project:EMSO http://www.emso-fr.org/EMSO-France
Depth: 2436.0 m
Title:EMSO Ligure Ouest : Data MII capteur MICROCAT
DateTime_Computer,Latitude,Longitude,Temperature,Conductivity,Pressure,DateTime_Instrument
DateTime_Computer,Latitude,Longitude,degC,S m-1,dbar,DateTime_Instrument
2021-05-24T00:02:55Z,42.805,6.029,13.2980,4.59996,2470.427,2021-5-24T02:04:07Z
2021-05-24T00:05:58Z,42.805,6.029,13.2978,4.59994,2470.366,2021-5-24T02:07:10Z
2021-05-24T00:09:01Z,42.805,6.029,13.2984,4.60003,2470.366,2021-5-24T02:10:13Z
2021-05-24T00:12:04Z,42.805,6.029,13.2982,4.59996,2470.39,2021-5-24T02:13:16Z
2021-05-24T00:15:08Z,42.805,6.029,13.2983,4.59999,2470.427,2021-5-24T02:16:19Z
2021-05-24T00:18:11Z,42.805,6.029,13.2982,4.59999,2470.39,2021-5-24T02:19:22Z
2021-05-24T00:21:14Z,42.805,6.029,13.2989,4.59993,2470.427,2021-5-24T02:22:26Z
2021-05-24T00:24:17Z,42.805,6.029,13.2979,4.59992,2470.366,2021-5-24T02:25:29Z
2021-05-24T00:27:20Z,42.805,6.029,13.2984,4.59992,2470.404,2021-5-24T02:28:32Z
2021-05-24T00:30:23Z,42.805,6.029,13.2983,4.59994,2470.39,2021-5-24T02:31:35Z
2021-05-24T00:33:26Z,42.805,6.029,13.2983,4.59991,2470.413,2021-5-24T02:34:38Z
2021-05-24T00:36:29Z,42.805,6.029,13.2984,4.59996,2470.39,2021-5-24T02:37:41Z
2021-05-24T00:39:33Z,42.805,6.029,13.2982,4.59993,2470.39,2021-5-24T02:40:44Z
2021-05-24T00:42:36Z,42.805,6.029,13.2984,4.59994,2470.427,2021-5-24T02:43:47Z
2021-05-24T00:45:39Z,42.805,6.029,13.2982,4.59992,2470.413,2021-5-24T02:46:51Z
2021-05-24T00:48:42Z,42.805,6.029,13.2983,4.59991,2470.39,2021-5-24T02:49:54Z
2021-05-24T00:51:45Z,42.805,6.029,13.2984,4.59992,2470.413,2021-5-24T02:52:57Z
2021-05-24T00:54:48Z,42.805,6.029,13.2982,4.59991,2470.413,2021-5-24T02:56:00Z
2021-05-24T00:57:51Z,42.805,6.029,13.2984,4.59990,2470.39,2021-5-24T02:59:03Z
2021-05-24T01:00:54Z,42.805,6.029,13.2986,4.59991,2470.39,2021-5-24T03:02:06Z
2021-05-24T01:03:58Z,42.805,6.029,13.2981,4.59991,2470.404,2021-5-24T03:05:09Z
2021-05-24T01:07:01Z,42.805,6.029,13.2983,4.59994,2470.404,2021-5-24T03:08:12Z
2021-05-24T01:10:04Z,42.805,6.029,13.2984,4.59991,2470.39,2021-5-24T03:11:15Z
2021-05-24T01:13:07Z,42.805,6.029,13.2984,4.59991,2470.39,2021-5-24T03:14:19Z
2021-05-24T01:16:10Z,42.805,6.029,13.2982,4.59994,2470.413,2021-5-24T03:17:22Z
2021-05-24T01:19:13Z,42.805,6.029,13.2980,4.59997,2470.413,2021-5-24T03:20:25Z
2021-05-24T01:22:16Z,42.805,6.029,13.2979,4.59993,2470.39,2021-5-24T03:23:28Z
2021-05-24T01:25:19Z,42.805,6.029,13.2984,4.60001,2470.404,2021-5-24T03:26:31Z
2021-05-24T01:28:22Z,42.805,6.029,13.2986,4.59991,2470.366,2021-5-24T03:29:34Z
2021-05-24T01:31:26Z,42.805,6.029,13.2982,4.60003,2470.413,2021-5-24T03:32:37Z
2021-05-24T01:34:29Z,42.805,6.029,13.2985,4.59996,2470.413,2021-5-24T03:35:40Z
2021-05-24T01:37:32Z,42.805,6.029,13.2981,4.59991,2470.45,2021-5-24T03:38:44Z
2021-05-24T01:40:35Z,42.805,6.029,13.2983,4.59989,2470.45,2021-5-24T03:41:47Z
2021-05-24T01:43:38Z,42.805,6.029,13.2979,4.59994,2470.399,2021-5-24T03:44:50Z
2021-05-24T01:46:41Z,42.805,6.029,13.2982,4.59994,2470.437,2021-5-24T03:47:53Z
2021-05-24T01:49:44Z,42.805,6.029,13.2979,4.59991,2470.46,2021-5-24T03:50:56Z
2021-05-24T01:52:48Z,42.805,6.029,13.2980,4.59991,2470.437,2021-5-24T03:53:59Z
2021-05-24T01:55:51Z,42.805,6.029,13.2983,4.60011,2470.46,2021-5-24T03:57:02Z
2021-05-24T01:58:54Z,42.805,6.029,13.2981,4.59989,2470.46,2021-5-24T04:00:05Z
2021-05-24T02:01:57Z,42.805,6.029,13.2982,4.59991,2470.437,2021-5-24T04:03:09Z
2021-05-24T02:05:00Z,42.805,6.029,13.2983,4.59991,2470.46,2021-5-24T04:06:12Z
2021-05-24T02:08:03Z,42.805,6.029,13.2984,4.59988,2470.474,2021-5-24T04:09:15Z
2021-05-24T02:11:06Z,42.805,6.029,13.2983,4.59989,2470.45,2021-5-24T04:12:18Z
2021-05-24T02:14:09Z,42.805,6.029,13.2979,4.59991,2470.413,2021-5-24T04:15:21Z
2021-05-24T02:17:12Z,42.805,6.029,13.2980,4.59988,2470.497,2021-5-24T04:18:24Z
2021-05-24T02:20:16Z,42.805,6.029,13.2986,4.59988,2470.46,2021-5-24T04:21:27Z
2021-05-24T02:23:19Z,42.805,6.029,13.2981,4.59991,2470.483,2021-5-24T04:24:30Z
2021-05-24T02:26:22Z,42.805,6.029,13.2983,4.59990,2470.46,2021-5-24T04:27:34Z
2021-05-24T02:29:25Z,42.805,6.029,13.2985,4.59992,2470.437,2021-5-24T04:30:37Z
2021-05-24T02:32:28Z,42.805,6.029,13.2982,4.60019,2470.46,2021-5-24T04:33:40Z
2021-05-24T02:35:31Z,42.805,6.029,13.2983,4.59990,2470.483,2021-5-24T04:36:43Z
2021-05-24T02:38:34Z,42.805,6.029,13.2981,4.59991,2470.497,2021-5-24T04:39:46Z
2021-05-24T02:41:37Z,42.805,6.029,13.2983,4.59988,2470.46,2021-5-24T04:42:49Z
2021-05-24T02:44:41Z,42.805,6.029,13.2981,4.59987,2470.507,2021-5-24T04:45:52Z
2021-05-24T02:47:44Z,42.805,6.029,13.2980,4.59991,2470.483,2021-5-24T04:48:55Z
2021-05-24T02:50:47Z,42.805,6.029,13.2983,4.59989,2470.46,2021-5-24T04:51:59Z
2021-05-24T02:53:50Z,42.805,6.029,13.2984,4.59990,2470.507,2021-5-24T04:55:02Z
2021-05-24T02:56:53Z,42.805,6.029,13.2984,4.59989,2470.483,2021-5-24T04:58:05Z
2021-05-24T02:59:56Z,42.805,6.029,13.2983,4.59991,2470.52,2021-5-24T05:01:08Z
2021-05-24T03:02:59Z,42.805,6.029,13.2983,4.59999,2470.483,2021-5-24T05:04:11Z
2021-05-24T03:06:02Z,42.805,6.029,13.2983,4.59994,2470.52,2021-5-24T05:07:14Z
2021-05-24T03:09:06Z,42.805,6.029,13.2990,4.59992,2470.507,2021-5-24T05:10:17Z
2021-05-24T03:12:09Z,42.805,6.029,13.2982,4.59996,2470.483,2021-5-24T05:13:20Z
2021-05-24T03:15:12Z,42.805,6.029,13.2984,4.59993,2470.507,2021-5-24T05:16:24Z
2021-05-24T03:18:15Z,42.805,6.029,13.2988,4.59996,2470.544,2021-5-24T05:19:27Z
2021-05-24T03:21:18Z,42.805,6.029,13.2988,4.59991,2470.507,2021-5-24T05:22:30Z
2021-05-24T03:24:21Z,42.805,6.029,13.2983,4.59991,2470.493,2021-5-24T05:25:33Z
2021-05-24T03:27:24Z,42.805,6.029,13.2985,4.59993,2470.53,2021-5-24T05:28:36Z
2021-05-24T03:30:27Z,42.805,6.029,13.2991,4.59992,2470.52,2021-5-24T05:31:39Z
2021-05-24T03:33:31Z,42.805,6.029,13.2990,4.59991,2470.507,2021-5-24T05:34:42Z
2021-05-24T03:36:34Z,42.805,6.029,13.2987,4.59991,2470.507,2021-5-24T05:37:45Z
2021-05-24T03:39:37Z,42.805,6.029,13.2987,4.59993,2470.53,2021-5-24T05:40:49Z
2021-05-24T03:42:40Z,42.805,6.029,13.2986,4.59990,2470.52,2021-5-24T05:43:52Z
2021-05-24T03:45:43Z,42.805,6.029,13.2985,4.59993,2470.544,2021-5-24T05:46:55Z
2021-05-24T03:48:46Z,42.805,6.029,13.2983,4.59998,2470.567,2021-5-24T05:49:58Z
2021-05-24T03:51:49Z,42.805,6.029,13.2985,4.59996,2470.553,2021-5-24T05:53:01Z
2021-05-24T03:54:52Z,42.805,6.029,13.2986,4.59992,2470.553,2021-5-24T05:56:04Z
2021-05-24T03:57:56Z,42.805,6.029,13.2990,4.59988,2470.544,2021-5-24T05:59:07Z
2021-05-24T04:00:59Z,42.805,6.029,13.2982,4.59992,2470.567,2021-5-24T06:02:10Z
2021-05-24T04:04:02Z,42.805,6.029,13.2983,4.59992,2470.591,2021-5-24T06:05:14Z
2021-05-24T04:07:05Z,42.805,6.029,13.2986,4.59991,2470.553,2021-5-24T06:08:17Z
2021-05-24T04:10:08Z,42.805,6.029,13.2983,4.59991,2470.52,2021-5-24T06:11:20Z
2021-05-24T04:13:11Z,42.805,6.029,13.2986,4.59994,2470.516,2021-5-24T06:14:23Z
2021-05-24T04:16:14Z,42.805,6.029,13.2989,4.60000,2470.567,2021-5-24T06:17:26Z
2021-05-24T04:19:17Z,42.805,6.029,13.2994,4.59991,2470.553,2021-5-24T06:20:29Z
2021-05-24T04:22:21Z,42.805,6.029,13.2992,4.59995,2470.53,2021-5-24T06:23:32Z
2021-05-24T04:25:24Z,42.805,6.029,13.2986,4.59992,2470.544,2021-5-24T06:26:35Z
2021-05-24T04:28:27Z,42.805,6.029,13.2983,4.59989,2470.591,2021-5-24T06:29:39Z
2021-05-24T04:31:30Z,42.805,6.029,13.2985,4.59991,2470.553,2021-5-24T06:32:42Z
2021-05-24T04:34:33Z,42.805,6.029,13.2990,4.59995,2470.577,2021-5-24T06:35:45Z
2021-05-24T04:37:36Z,42.805,6.029,13.2991,4.60003,2470.553,2021-5-24T06:38:48Z
2021-05-24T04:40:39Z,42.805,6.029,13.2986,4.59991,2470.53,2021-5-24T06:41:51Z
2021-05-24T04:43:42Z,42.805,6.029,13.2986,4.59991,2470.553,2021-5-24T06:44:54Z
2021-05-24T04:46:46Z,42.805,6.029,13.2993,4.59991,2470.567,2021-5-24T06:47:57Z
2021-05-24T04:49:49Z,42.805,6.029,13.2983,4.60002,2470.553,2021-5-24T06:51:00Z
2021-05-24T04:52:52Z,42.805,6.029,13.2983,4.59997,2470.53,2021-5-24T06:54:03Z
2021-05-24T04:55:55Z,42.805,6.029,13.2985,4.59989,2470.553,2021-5-24T06:57:07Z
2021-05-24T04:58:58Z,42.805,6.029,13.2988,4.59989,2470.553,2021-5-24T07:00:10Z
2021-05-24T05:02:01Z,42.805,6.029,13.2990,4.59991,2470.553,2021-5-24T07:03:13Z
2021-05-24T05:05:04Z,42.805,6.029,13.2986,4.59992,2470.567,2021-5-24T07:06:16Z
2021-05-24T05:08:07Z,42.805,6.029,13.2990,4.59991,2470.577,2021-5-24T07:09:19Z
2021-05-24T05:11:10Z,42.805,6.029,13.2993,4.59993,2470.577,2021-5-24T07:12:22Z
2021-05-24T05:14:14Z,42.805,6.029,13.2987,4.59991,2470.553,2021-5-24T07:15:25Z
2021-05-24T05:17:17Z,42.805,6.029,13.2982,4.59991,2470.53,2021-5-24T07:18:28Z
2021-05-24T05:20:20Z,42.805,6.029,13.2983,4.59991,2470.591,2021-5-24T07:21:32Z
2021-05-24T05:23:23Z,42.805,6.029,13.2987,4.59991,2470.567,2021-5-24T07:24:35Z
2021-05-24T05:26:26Z,42.805,6.029,13.2985,4.59991,2470.553,2021-5-24T07:27:38Z
2021-05-24T05:29:29Z,42.805,6.029,13.2988,4.59991,2470.553,2021-5-24T07:30:41Z
2021-05-24T05:32:32Z,42.805,6.029,13.2983,4.59992,2470.586,2021-5-24T07:33:44Z
2021-05-24T05:35:35Z,42.805,6.029,13.2986,4.59991,2470.567,2021-5-24T07:36:47Z
2021-05-24T05:38:39Z,42.805,6.029,13.2986,4.59994,2470.544,2021-5-24T07:39:50Z
2021-05-24T05:41:42Z,42.805,6.029,13.2983,4.59991,2470.553,2021-5-24T07:42:53Z
2021-05-24T05:44:45Z,42.805,6.029,13.2985,4.59996,2470.553,2021-5-24T07:45:57Z
2021-05-24T05:47:48Z,42.805,6.029,13.2987,4.59991,2470.53,2021-5-24T07:49:00Z
2021-05-24T05:50:51Z,42.805,6.029,13.2987,4.59994,2470.553,2021-5-24T07:52:03Z
2021-05-24T05:53:54Z,42.805,6.029,13.2986,4.59991,2470.553,2021-5-24T07:55:06Z
2021-05-24T05:56:57Z,42.805,6.029,13.2979,4.59991,2470.53,2021-5-24T07:58:09Z
2021-05-24T06:00:00Z,42.805,6.029,13.2985,4.59996,2470.544,2021-5-24T08:01:12Z
2021-05-24T06:03:04Z,42.805,6.029,13.2982,4.59996,2470.567,2021-5-24T08:04:15Z
2021-05-24T06:06:07Z,42.805,6.029,13.2983,4.59991,2470.553,2021-5-24T08:07:18Z
2021-05-24T06:09:10Z,42.805,6.029,13.2986,4.59990,2470.553,2021-5-24T08:10:22Z
2021-05-24T06:12:13Z,42.805,6.029,13.2987,4.59996,2470.53,2021-5-24T08:13:25Z
2021-05-24T06:15:16Z,42.805,6.029,13.2986,4.59994,2470.567,2021-5-24T08:16:28Z
2021-05-24T06:18:19Z,42.805,6.029,13.2984,4.59994,2470.544,2021-5-24T08:19:31Z
2021-05-24T06:21:22Z,42.805,6.029,13.2982,4.59991,2470.567,2021-5-24T08:22:34Z
2021-05-24T06:24:25Z,42.805,6.029,13.2982,4.59991,2470.567,2021-5-24T08:25:37Z
2021-05-24T06:27:29Z,42.805,6.029,13.2987,4.59997,2470.507,2021-5-24T08:28:40Z
2021-05-24T06:30:32Z,42.805,6.029,13.2982,4.59991,2470.53,2021-5-24T08:31:43Z
2021-05-24T06:33:35Z,42.805,6.029,13.2982,4.59996,2470.53,2021-5-24T08:34:47Z
2021-05-24T06:36:38Z,42.805,6.029,13.2982,4.59996,2470.544,2021-5-24T08:37:50Z
2021-05-24T06:39:41Z,42.805,6.029,13.2984,4.59994,2470.544,2021-5-24T08:40:53Z
2021-05-24T06:42:44Z,42.805,6.029,13.2982,4.59993,2470.507,2021-5-24T08:43:56Z
2021-05-24T06:45:47Z,42.805,6.029,13.2983,4.59990,2470.53,2021-5-24T08:46:59Z
2021-05-24T06:48:50Z,42.805,6.029,13.2985,4.59990,2470.507,2021-5-24T08:50:02Z
2021-05-24T06:51:54Z,42.805,6.029,13.2983,4.59997,2470.53,2021-5-24T08:53:05Z
2021-05-24T06:54:57Z,42.805,6.029,13.2982,4.59991,2470.553,2021-5-24T08:56:08Z
2021-05-24T06:58:00Z,42.805,6.029,13.2982,4.59995,2470.507,2021-5-24T08:59:12Z
2021-05-24T07:01:03Z,42.805,6.029,13.2985,4.59993,2470.553,2021-5-24T09:02:15Z
2021-05-24T07:04:06Z,42.805,6.029,13.2982,4.59995,2470.544,2021-5-24T09:05:18Z
2021-05-24T07:07:09Z,42.805,6.029,13.2983,4.59991,2470.483,2021-5-24T09:08:21Z
2021-05-24T07:10:12Z,42.805,6.029,13.2983,4.59991,2470.507,2021-5-24T09:11:24Z
2021-05-24T07:13:15Z,42.805,6.029,13.2979,4.59994,2470.52,2021-5-24T09:14:27Z
2021-05-24T07:16:19Z,42.805,6.029,13.2981,4.59990,2470.507,2021-5-24T09:17:30Z
2021-05-24T07:19:22Z,42.805,6.029,13.2981,4.59992,2470.52,2021-5-24T09:20:33Z
2021-05-24T07:22:25Z,42.805,6.029,13.2981,4.59989,2470.493,2021-5-24T09:23:36Z
2021-05-24T07:25:28Z,42.805,6.029,13.2984,4.59990,2470.483,2021-5-24T09:26:40Z
2021-05-24T07:28:31Z,42.805,6.029,13.2979,4.59991,2470.544,2021-5-24T09:29:43Z
2021-05-24T07:31:34Z,42.805,6.029,13.2983,4.59991,2470.507,2021-5-24T09:32:46Z
2021-05-24T07:34:37Z,42.805,6.029,13.2983,4.59991,2470.544,2021-5-24T09:35:49Z
2021-05-24T07:37:40Z,42.805,6.029,13.2984,4.59996,2470.483,2021-5-24T09:38:52Z
2021-05-24T07:40:44Z,42.805,6.029,13.2982,4.59989,2470.483,2021-5-24T09:41:55Z
2021-05-24T07:43:47Z,42.805,6.029,13.2983,4.59991,2470.497,2021-5-24T09:44:58Z
2021-05-24T07:46:50Z,42.805,6.029,13.2982,4.59990,2470.483,2021-5-24T09:48:01Z
2021-05-24T07:49:53Z,42.805,6.029,13.2982,4.59992,2470.483,2021-5-24T09:51:05Z
2021-05-24T07:52:56Z,42.805,6.029,13.2986,4.59991,2470.507,2021-5-24T09:54:08Z
2021-05-24T07:55:59Z,42.805,6.029,13.2985,4.59991,2470.437,2021-5-24T09:57:11Z
2021-05-24T07:59:02Z,42.805,6.029,13.2983,4.59996,2470.483,2021-5-24T10:00:14Z
2021-05-24T08:02:05Z,42.805,6.029,13.2985,4.59991,2470.46,2021-5-24T10:03:17Z
2021-05-24T08:05:09Z,42.805,6.029,13.2984,4.59994,2470.437,2021-5-24T10:06:20Z
2021-05-24T08:08:12Z,42.805,6.029,13.2987,4.59988,2470.474,2021-5-24T10:09:23Z
2021-05-24T08:11:15Z,42.805,6.029,13.2983,4.59990,2470.46,2021-5-24T10:12:26Z
2021-05-24T08:14:18Z,42.805,6.029,13.2984,4.59991,2470.45,2021-5-24T10:15:30Z
2021-05-24T08:17:21Z,42.805,6.029,13.2982,4.59991,2470.437,2021-5-24T10:18:33Z
2021-05-24T08:20:24Z,42.805,6.029,13.2985,4.59990,2470.437,2021-5-24T10:21:36Z
2021-05-24T08:23:27Z,42.805,6.029,13.2979,4.59992,2470.437,2021-5-24T10:24:39Z
2021-05-24T08:26:30Z,42.805,6.029,13.2983,4.59990,2470.46,2021-5-24T10:27:42Z
2021-05-24T08:29:34Z,42.805,6.029,13.2984,4.59987,2470.45,2021-5-24T10:30:45Z
2021-05-24T08:32:37Z,42.805,6.029,13.2985,4.59989,2470.437,2021-5-24T10:33:48Z
2021-05-24T08:35:40Z,42.805,6.029,13.2986,4.59988,2470.437,2021-5-24T10:36:52Z
2021-05-24T08:38:43Z,42.805,6.029,13.2988,4.59988,2470.437,2021-5-24T10:39:55Z
2021-05-24T08:41:46Z,42.805,6.029,13.2984,4.59993,2470.46,2021-5-24T10:42:58Z
2021-05-24T08:44:49Z,42.805,6.029,13.2984,4.59990,2470.46,2021-5-24T10:46:01Z
2021-05-24T08:47:52Z,42.805,6.029,13.2987,4.59990,2470.427,2021-5-24T10:49:04Z
2021-05-24T08:50:55Z,42.805,6.029,13.2982,4.59989,2470.437,2021-5-24T10:52:07Z
2021-05-24T08:53:59Z,42.805,6.029,13.2988,4.59994,2470.413,2021-5-24T10:55:10Z
2021-05-24T08:57:02Z,42.805,6.029,13.2982,4.59988,2470.413,2021-5-24T10:58:13Z
2021-05-24T09:00:05Z,42.805,6.029,13.2986,4.59987,2470.437,2021-5-24T11:01:17Z
2021-05-24T09:03:08Z,42.805,6.029,13.2983,4.59987,2470.45,2021-5-24T11:04:20Z
2021-05-24T09:06:11Z,42.805,6.029,13.2982,4.59989,2470.437,2021-5-24T11:07:23Z
2021-05-24T09:09:14Z,42.805,6.029,13.2983,4.59991,2470.413,2021-5-24T11:10:26Z
2021-05-24T09:12:17Z,42.805,6.029,13.2983,4.59994,2470.413,2021-5-24T11:13:29Z
2021-05-24T09:15:20Z,42.805,6.029,13.2985,4.59992,2470.413,2021-5-24T11:16:32Z
2021-05-24T09:18:24Z,42.805,6.029,13.2986,4.59991,2470.427,2021-5-24T11:19:35Z
2021-05-24T09:21:27Z,42.805,6.029,13.2985,4.59991,2470.413,2021-5-24T11:22:38Z
2021-05-24T09:24:30Z,42.805,6.029,13.2984,4.59988,2470.39,2021-5-24T11:25:42Z
2021-05-24T09:27:33Z,42.805,6.029,13.2986,4.59988,2470.404,2021-5-24T11:28:45Z
2021-05-24T09:30:36Z,42.805,6.029,13.2986,4.59989,2470.404,2021-5-24T11:31:48Z
2021-05-24T09:33:39Z,42.805,6.029,13.2985,4.59989,2470.427,2021-5-24T11:34:51Z
2021-05-24T09:36:42Z,42.805,6.029,13.2982,4.59990,2470.39,2021-5-24T11:37:54Z
2021-05-24T09:39:46Z,42.805,6.029,13.2982,4.59991,2470.39,2021-5-24T11:40:57Z
2021-05-24T09:42:49Z,42.805,6.029,13.2983,4.59990,2470.366,2021-5-24T11:44:00Z
2021-05-24T09:45:52Z,42.805,6.029,13.2985,4.59994,2470.366,2021-5-24T11:47:04Z
2021-05-24T09:48:55Z,42.805,6.029,13.2988,4.59990,2470.39,2021-5-24T11:50:07Z
2021-05-24T09:51:58Z,42.805,6.029,13.2984,4.59991,2470.413,2021-5-24T11:53:10Z
2021-05-24T09:55:01Z,42.805,6.029,13.2984,4.59992,2470.366,2021-5-24T11:56:13Z
2021-05-24T09:58:04Z,42.805,6.029,13.2985,4.59991,2470.413,2021-5-24T11:59:16Z
2021-05-24T10:01:07Z,42.805,6.029,13.2985,4.59991,2470.38,2021-5-24T12:02:19Z
2021-05-24T10:04:11Z,42.805,6.029,13.2983,4.59992,2470.366,2021-5-24T12:05:22Z
2021-05-24T10:07:14Z,42.805,6.029,13.2984,4.59991,2470.343,2021-5-24T12:08:25Z
2021-05-24T10:10:17Z,42.805,6.029,13.2985,4.59990,2470.343,2021-5-24T12:11:29Z
2021-05-24T10:13:20Z,42.805,6.029,13.2983,4.59991,2470.343,2021-5-24T12:14:32Z
2021-05-24T10:16:23Z,42.805,6.029,13.2983,4.59989,2470.38,2021-5-24T12:17:35Z
2021-05-24T10:19:26Z,42.805,6.029,13.2978,4.59990,2470.343,2021-5-24T12:20:38Z
2021-05-24T10:22:29Z,42.805,6.029,13.2981,4.59991,2470.343,2021-5-24T12:23:41Z
2021-05-24T10:25:32Z,42.805,6.029,13.2985,4.59990,2470.39,2021-5-24T12:26:44Z
2021-05-24T10:28:36Z,42.805,6.029,13.2983,4.59992,2470.343,2021-5-24T12:29:47Z
2021-05-24T10:31:39Z,42.805,6.029,13.2987,4.59990,2470.343,2021-5-24T12:32:50Z
2021-05-24T10:34:42Z,42.805,6.029,13.2989,4.59990,2470.357,2021-5-24T12:35:54Z
2021-05-24T10:37:45Z,42.805,6.029,13.2987,4.59992,2470.357,2021-5-24T12:38:57Z
2021-05-24T10:40:48Z,42.805,6.029,13.2986,4.59991,2470.32,2021-5-24T12:42:00Z
2021-05-24T10:43:51Z,42.805,6.029,13.2986,4.59992,2470.343,2021-5-24T12:45:03Z
2021-05-24T10:46:54Z,42.805,6.029,13.2986,4.59989,2470.32,2021-5-24T12:48:06Z
2021-05-24T10:49:57Z,42.805,6.029,13.2983,4.59991,2470.357,2021-5-24T12:51:09Z
2021-05-24T10:53:01Z,42.805,6.029,13.2983,4.59989,2470.306,2021-5-24T12:54:12Z
2021-05-24T10:56:04Z,42.805,6.029,13.2986,4.59989,2470.343,2021-5-24T12:57:15Z
2021-05-24T10:59:07Z,42.805,6.029,13.2987,4.59990,2470.343,2021-5-24T13:00:19Z
2021-05-24T11:02:10Z,42.805,6.029,13.2983,4.59992,2470.32,2021-5-24T13:03:22Z
2021-05-24T11:05:13Z,42.805,6.029,13.2983,4.59991,2470.357,2021-5-24T13:06:25Z
2021-05-24T11:08:16Z,42.805,6.029,13.2985,4.59991,2470.357,2021-5-24T13:09:28Z
2021-05-24T11:11:19Z,42.805,6.029,13.2985,4.59989,2470.31,2021-5-24T13:12:31Z
2021-05-24T11:14:22Z,42.805,6.029,13.2984,4.59997,2470.32,2021-5-24T13:15:34Z
2021-05-24T11:17:26Z,42.805,6.029,13.2983,4.59991,2470.32,2021-5-24T13:18:37Z
2021-05-24T11:20:29Z,42.805,6.029,13.2982,4.59990,2470.32,2021-5-24T13:21:41Z
2021-05-24T11:23:32Z,42.805,6.029,13.2984,4.59989,2470.31,2021-5-24T13:24:44Z
2021-05-24T11:26:35Z,42.805,6.029,13.2983,4.59989,2470.297,2021-5-24T13:27:47Z
2021-05-24T11:29:38Z,42.805,6.029,13.2982,4.59991,2470.306,2021-5-24T13:30:50Z
2021-05-24T11:32:41Z,42.805,6.029,13.2983,4.59993,2470.32,2021-5-24T13:33:53Z
2021-05-24T11:35:44Z,42.805,6.029,13.2985,4.59991,2470.31,2021-5-24T13:36:56Z
2021-05-24T11:38:48Z,42.805,6.029,13.2987,4.59997,2470.273,2021-5-24T13:39:59Z
2021-05-24T11:41:51Z,42.805,6.029,13.2985,4.59990,2470.31,2021-5-24T13:43:02Z
2021-05-24T11:44:54Z,42.805,6.029,13.2986,4.59992,2470.32,2021-5-24T13:46:06Z
2021-05-24T11:47:57Z,42.805,6.029,13.2986,4.59990,2470.297,2021-5-24T13:49:09Z
2021-05-24T11:51:00Z,42.805,6.029,13.2994,4.59991,2470.32,2021-5-24T13:52:12Z
2021-05-24T11:54:03Z,42.805,6.029,13.2990,4.59993,2470.297,2021-5-24T13:55:15Z
2021-05-24T11:57:06Z,42.805,6.029,13.2985,4.59998,2470.273,2021-5-24T13:58:18Z
2021-05-24T12:00:09Z,42.805,6.029,13.2986,4.59995,2470.31,2021-5-24T14:01:21Z
2021-05-24T12:03:13Z,42.805,6.029,13.2989,4.59995,2470.334,2021-5-24T14:04:25Z
2021-05-24T12:06:16Z,42.805,6.029,13.2983,4.59991,2470.32,2021-5-24T14:07:28Z
2021-05-24T12:09:19Z,42.805,6.029,13.2983,4.59991,2470.297,2021-5-24T14:10:31Z
2021-05-24T12:12:23Z,42.805,6.029,13.2987,4.59991,2470.31,2021-5-24T14:13:34Z
2021-05-24T12:15:26Z,42.805,6.029,13.2986,4.59993,2470.297,2021-5-24T14:16:37Z
2021-05-24T12:18:29Z,42.805,6.029,13.2984,4.59991,2470.287,2021-5-24T14:19:41Z
2021-05-24T12:21:32Z,42.805,6.029,13.2989,4.59993,2470.273,2021-5-24T14:22:44Z
2021-05-24T12:24:35Z,42.805,6.029,13.2986,4.59994,2470.25,2021-5-24T14:25:47Z
2021-05-24T12:27:38Z,42.805,6.029,13.2986,4.59995,2470.32,2021-5-24T14:28:50Z
2021-05-24T12:30:41Z,42.805,6.029,13.2989,4.59992,2470.31,2021-5-24T14:31:53Z
2021-05-24T12:33:45Z,42.805,6.029,13.2990,4.59991,2470.31,2021-5-24T14:34:56Z
2021-05-24T12:36:48Z,42.805,6.029,13.2989,4.59991,2470.31,2021-5-24T14:37:59Z
2021-05-24T12:39:51Z,42.805,6.029,13.2988,4.59995,2470.273,2021-5-24T14:41:02Z
2021-05-24T12:42:54Z,42.805,6.029,13.2990,4.59991,2470.31,2021-5-24T14:44:06Z
2021-05-24T12:45:57Z,42.805,6.029,13.2985,4.59993,2470.297,2021-5-24T14:47:09Z
2021-05-24T12:49:00Z,42.805,6.029,13.2993,4.59992,2470.273,2021-5-24T14:50:12Z
2021-05-24T12:52:03Z,42.805,6.029,13.2988,4.59991,2470.273,2021-5-24T14:53:15Z
2021-05-24T12:55:06Z,42.805,6.029,13.2989,4.59998,2470.297,2021-5-24T14:56:18Z
2021-05-24T12:58:10Z,42.805,6.029,13.2987,4.59991,2470.273,2021-5-24T14:59:21Z
2021-05-24T13:01:13Z,42.805,6.029,13.2991,4.59992,2470.25,2021-5-24T15:02:24Z
2021-05-24T13:04:16Z,42.805,6.029,13.2986,4.59992,2470.32,2021-5-24T15:05:28Z
2021-05-24T13:07:19Z,42.805,6.029,13.2989,4.59993,2470.38,2021-5-24T15:08:31Z
2021-05-24T13:10:22Z,42.805,6.029,13.2990,4.59992,2470.334,2021-5-24T15:11:34Z
2021-05-24T13:13:25Z,42.805,6.029,13.2987,4.59992,2470.32,2021-5-24T15:14:37Z
2021-05-24T13:16:28Z,42.805,6.029,13.2990,4.59992,2470.357,2021-5-24T15:17:40Z
2021-05-24T13:19:31Z,42.805,6.029,13.2990,4.59992,2470.297,2021-5-24T15:20:43Z
2021-05-24T13:22:35Z,42.805,6.029,13.2989,4.59994,2470.32,2021-5-24T15:23:46Z
2021-05-24T13:25:38Z,42.805,6.029,13.2992,4.59992,2470.343,2021-5-24T15:26:49Z
2021-05-24T13:28:41Z,42.805,6.029,13.2991,4.59995,2470.38,2021-5-24T15:29:53Z
2021-05-24T13:31:44Z,42.805,6.029,13.2989,4.59996,2470.32,2021-5-24T15:32:56Z
2021-05-24T13:34:47Z,42.805,6.029,13.2985,4.59993,2470.357,2021-5-24T15:35:59Z
2021-05-24T13:37:50Z,42.805,6.029,13.2986,4.60002,2470.334,2021-5-24T15:39:02Z
2021-05-24T13:40:53Z,42.805,6.029,13.2987,4.59991,2470.357,2021-5-24T15:42:05Z
2021-05-24T13:43:56Z,42.805,6.029,13.2986,4.59996,2470.357,2021-5-24T15:45:08Z
2021-05-24T13:47:00Z,42.805,6.029,13.2984,4.59991,2470.343,2021-5-24T15:48:11Z
2021-05-24T13:50:03Z,42.805,6.029,13.2983,4.59991,2470.32,2021-5-24T15:51:14Z
2021-05-24T13:53:06Z,42.805,6.029,13.2988,4.59991,2470.366,2021-5-24T15:54:18Z
2021-05-24T13:56:09Z,42.805,6.029,13.2991,4.59991,2470.334,2021-5-24T15:57:21Z
2021-05-24T13:59:12Z,42.805,6.029,13.2989,4.59996,2470.32,2021-5-24T16:00:24Z
2021-05-24T14:02:15Z,42.805,6.029,13.2989,4.59995,2470.366,2021-5-24T16:03:27Z
2021-05-24T14:05:18Z,42.805,6.029,13.2991,4.59994,2470.366,2021-5-24T16:06:30Z
2021-05-24T14:08:21Z,42.805,6.029,13.2990,4.59992,2470.357,2021-5-24T16:09:33Z
2021-05-24T14:11:25Z,42.805,6.029,13.2987,4.59991,2470.33,2021-5-24T16:12:36Z
2021-05-24T14:14:28Z,42.805,6.029,13.2984,4.59993,2470.38,2021-5-24T16:15:39Z
2021-05-24T14:17:31Z,42.805,6.029,13.2990,4.59991,2470.343,2021-5-24T16:18:43Z
2021-05-24T14:20:34Z,42.805,6.029,13.2987,4.59991,2470.343,2021-5-24T16:21:46Z
2021-05-24T14:23:37Z,42.805,6.029,13.2987,4.59992,2470.357,2021-5-24T16:24:49Z
2021-05-24T14:26:40Z,42.805,6.029,13.2991,4.59995,2470.357,2021-5-24T16:27:52Z
2021-05-24T14:29:43Z,42.805,6.029,13.2988,4.59994,2470.366,2021-5-24T16:30:55Z
2021-05-24T14:32:46Z,42.805,6.029,13.2988,4.59993,2470.38,2021-5-24T16:33:58Z
2021-05-24T14:35:50Z,42.805,6.029,13.2990,4.59991,2470.404,2021-5-24T16:37:01Z
2021-05-24T14:38:53Z,42.805,6.029,13.2985,4.59991,2470.366,2021-5-24T16:40:05Z
2021-05-24T14:41:56Z,42.805,6.029,13.2987,4.59992,2470.39,2021-5-24T16:43:08Z
2021-05-24T14:44:59Z,42.805,6.029,13.2986,4.59991,2470.343,2021-5-24T16:46:11Z
2021-05-24T14:48:02Z,42.805,6.029,13.2990,4.59992,2470.404,2021-5-24T16:49:14Z
2021-05-24T14:51:05Z,42.805,6.029,13.2991,4.59991,2470.366,2021-5-24T16:52:17Z
2021-05-24T14:54:08Z,42.805,6.029,13.2986,4.59994,2470.39,2021-5-24T16:55:20Z
2021-05-24T14:57:12Z,42.805,6.029,13.2986,4.60000,2470.404,2021-5-24T16:58:23Z
2021-05-24T15:00:15Z,42.805,6.029,13.2990,4.59994,2470.366,2021-5-24T17:01:26Z
2021-05-24T15:03:18Z,42.805,6.029,13.2989,4.59991,2470.366,2021-5-24T17:04:30Z
2021-05-24T15:06:21Z,42.805,6.029,13.2987,4.59991,2470.39,2021-5-24T17:07:33Z
2021-05-24T15:09:24Z,42.805,6.029,13.2987,4.59992,2470.404,2021-5-24T17:10:36Z
2021-05-24T15:12:27Z,42.805,6.029,13.2988,4.59992,2470.39,2021-5-24T17:13:39Z
2021-05-24T15:15:30Z,42.805,6.029,13.2993,4.59994,2470.404,2021-5-24T17:16:42Z